User: anonymous   Login
Location: Bijele Vode
(45.2833°N, 16.2000°E)
Time: 06:03:13
(UTC+00:00)
Language:

DIWATA 2B (PO-101) - Orbit

View from above orbital plane
View from above orbital plane
View from above satellite
View from above satellite

Ground track
Ground track

The orbit data is extracted from the following two-line orbital elements,

1 43678U 18084H   21338.89039047  .00000022  00000-0  79147-5 0  9993
2 43678  97.9450 105.2855 0009230 200.8681 159.2155 14.91842850168846
Epoch (UTC): 04 December 2021 21:22:09
Eccentricity: 0.0009230
inclination: 97.9450°
perigee height: 586 km
apogee height: 598 km
right ascension of ascending node: 105.2855°
argument of perigee: 200.8681°
revolutions per day: 14.91842850
mean anomaly at epoch: 159.2155°
orbit number at epoch: 16884

The dashed part of the orbit path shows where the satellite is in the earth's shadow,  

DLR